"Pseudo-MPEC" for ZTB6409

Created 2018 Oct 20 21:18:42 UT using Find_Orb

Click here for an explanation of pseudo-MPECs

 
 Astrometry: 
     ZTB6409  C2018 10 10.25264 01 15 37.01 +28 32 30.9          21.1 GVNEOCPG96
     ZTB6409  C2018 10 10.25834 01 15 36.63 +28 32 25.3          21.3 GVNEOCPG96
     ZTB6409  C2018 10 10.26404 01 15 36.25 +28 32 19.8          21.2 GVNEOCPG96
     ZTB6409  C2018 10 10.26974 01 15 35.85 +28 32 14.4          21.2 GVNEOCPG96
     ZTB6409  C2018 10 10?,Astrometry+OT[l!y8ZZiZD28V7n[S$M#FKa?WFnf\aAR:7DtqV06
     ZTB6409  C2018 10 104.oFFK7;`k?hnEh@aaQaVqwq8Pe)t9bGI/GObik\W`[yZvae8q]5V06
     ZTB6409  C2018 10 10BOe-Y:FYm)enXfWG1redacted;mYK(X+%sq=jTR2)r?f?vBfY.[kV06
     ZTB6409  C2018 10 10Nll9_%eg^JF1AcOph3hbO.'%Pn88))fuPZ4UE!mo%ke[@5I-W17eV06
     ZTB6409 KC2018 10 16m;/TD8u?BUSxT.k#0JnP+ieUvC@3b3*$seeN93r+.kN=Dq-qtqvCH21
     ZTB6409 KC2018 10 16G'2g\bd#PLj4+?M72L]:C[@:hlh:h1;ow(,`F/6syJ$rQBd=HGXkH21
     ZTB6409 KC2018 10 16(x_Kj'eX9N6cZP/C@(vD`ou\39*ZKObIhg:pRLc3Tyvh*+eNEOCPH21
     ZTB6409  C2018 10 18.17744 01 07 06.02 +26 14 23.0          21.9 GVNEOCPI52
     ZTB6409  C2018 10 18.18243 01 07 05.65 +26 14 18.1          21.9 GVNEOCPI52
     ZTB6409  C2018 10 18.18493 01 07 05.44 +26 14 15.0          22.0 GVNEOCPI52

Station data:
(G96) Mt. Lemmon Survey  (N32.442754 W110.788720)  US/Arizona.  Observers B.
   M. Africano, E. J. Christensen, D. C. Fuls, A. R. Gibbs, A. D. Grauer, J.
   A. Johnson, R. A. Kowalski, S. M. Larson, G. J. Leonard, R. L. Seaman, F.
   C. Shelly. 1.5-m reflector + 10K CCD.
(H21) Astronomical Research Observatory, Westfield  (N39.483057 W87.968270)
   US/Illinois. 0.76-m f/3.0 astrograph + CCD.
(I52) Steward Observatory, Mt. Lemmon Station  (N32.442547 W110.788920)
   US/Arizona.  Observers B. M. Africano, E. J. Christensen, D. C. Fuls, A.
   R. Gibbs, A. D. Grauer, J. A. Johnson, R. A. Kowalski, S. M. Larson, G. J.
   Leonard, R. L. Seaman, F. C. Shelly. 1.0-m reflector + CCD.
(V06) Catalina Sky Survey-Kuiper  (N32.416847 W110.732550)  US/Arizona.
   Observers B. M. Africano, E. J. Christensen, D. C. Fuls, A. R. Gibbs, A.
   D. Grauer, J. A. Johnson, R. A. Kowalski, S. M. Larson, G. J. Leonard, R.
   L. Seaman, F. C. Shelly. 1.55-m reflector + CCD.

Orbital elements:  ZTB6409
   Perihelion 2017 Jul 25.919140 +/- 6.79 TT = 22:03:33 (JD 2457960.419140)
Epoch 2018 Oct 18.0 TT = JDT 2458409.5   Earth MOID: 0.7167   AutoNEOCP
M 175.59078 +/- 2.3                 (J2000 ecliptic)
n   0.39100038 +/- 0.000826         Peri.  335.62071 +/- 1.9
a   1.85218597 +/- 0.00261          Node   231.90066 +/- 0.16
e   0.0722756 +/- 0.00151           Incl.   19.10893 +/- 0.15
P   2.52/920.70d           H 19.5   G  0.15   U  8.0  
q 1.71831811 +/- 0.000391    Q 1.98605384 +/- 0.00557
From 14 observations 2018 Oct. 10-18; mean residual 0".28
Residuals in arcseconds: 
181010 G96  .03-  .49+    181010 V06  .11-  .72-    181016 H21  .11+  .22+    
181010 G96  .09+  .28+    181010 V06  .13-  .01-    181018 I52  .58+  .36-    
181010 G96  .20+  .17+    181010 V06  .03-  .11-    181018 I52  .01+  .31+    
181010 G96  .06+  .17+    181016 H21  .19-  .03+    181018 I52  .61-  .00     
181010 V06  .08-  .32-    181016 H21  .12+  .14-    

Ephemerides (geocentric):
Date (UTC) HH   RA              Dec         delta   r     elong  mag " sig PA
---- -- -- --  -------------   -----------  ------ ------ -----  --- ---- ---
2018 10 20 21  01 04 18.915   +25 22 42.52  1.0129 1.9859 162.8 21.6  1.0 124
2018 10 20 22  01 04 16.391   +25 21 53.73  1.0130 1.9859 162.8 21.6  1.1 124
2018 10 20 23  01 04 13.868   +25 21 04.91  1.0130 1.9859 162.8 21.6  1.1 124
2018 10 21 00  01 04 11.347   +25 20 16.07  1.0130 1.9859 162.8 21.6  1.1 124
2018 10 21 01  01 04 08.828   +25 19 27.20  1.0130 1.9859 162.8 21.6  1.1 123
2018 10 21 02  01 04 06.310   +25 18 38.31  1.0130 1.9859 162.8 21.6  1.1 123
2018 10 21 03  01 04 03.795   +25 17 49.39  1.0130 1.9859 162.8 21.6  1.1 123
2018 10 21 04  01 04 01.281   +25 17 00.45  1.0130 1.9859 162.8 21.6  1.2 123
2018 10 21 05  01 03 58.769   +25 16 11.49  1.0130 1.9859 162.8 21.6  1.2 123
2018 10 21 06  01 03 56.258   +25 15 22.50  1.0131 1.9859 162.8 21.6  1.2 123
2018 10 21 07  01 03 53.749   +25 14 33.49  1.0131 1.9859 162.8 21.6  1.2 123
2018 10 21 08  01 03 51.243   +25 13 44.45  1.0131 1.9859 162.8 21.6  1.2 123
2018 10 21 09  01 03 48.737   +25 12 55.40  1.0131 1.9859 162.8 21.6  1.3 122
2018 10 21 10  01 03 46.234   +25 12 06.31  1.0131 1.9859 162.8 21.6  1.3 122
2018 10 21 11  01 03 43.733   +25 11 17.21  1.0131 1.9859 162.7 21.6  1.3 122
2018 10 21 12  01 03 41.233   +25 10 28.08  1.0132 1.9859 162.7 21.6  1.3 122
2018 10 21 13  01 03 38.735   +25 09 38.93  1.0132 1.9859 162.7 21.6  1.3 122
2018 10 21 14  01 03 36.239   +25 08 49.76  1.0132 1.9859 162.7 21.6  1.4 122
2018 10 21 15  01 03 33.745   +25 08 00.56  1.0132 1.9859 162.7 21.6  1.4 122
2018 10 21 16  01 03 31.252   +25 07 11.34  1.0132 1.9859 162.7 21.6  1.4 122
2018 10 21 17  01 03 28.761   +25 06 22.10  1.0133 1.9859 162.7 21.6  1.4 121
2018 10 21 18  01 03 26.273   +25 05 32.83  1.0133 1.9859 162.7 21.6  1.4 121
2018 10 21 19  01 03 23.786   +25 04 43.54  1.0133 1.9859 162.7 21.6  1.5 121
2018 10 21 20  01 03 21.301   +25 03 54.23  1.0133 1.9859 162.7 21.6  1.5 121
2018 10 21 21  01 03 18.818   +25 03 04.90  1.0133 1.9859 162.7 21.6  1.5 121
2018 10 21 22  01 03 16.336   +25 02 15.55  1.0134 1.9859 162.7 21.6  1.5 121
2018 10 21 23  01 03 13.857   +25 01 26.17  1.0134 1.9859 162.7 21.6  1.5 121
2018 10 22 00  01 03 11.379   +25 00 36.77  1.0134 1.9859 162.7 21.6  1.6 121
2018 10 22 01  01 03 08.904   +24 59 47.35  1.0134 1.9859 162.7 21.6  1.6 120
2018 10 22 02  01 03 06.430   +24 58 57.91  1.0135 1.9859 162.7 21.6  1.6 120
2018 10 22 03  01 03 03.958   +24 58 08.44  1.0135 1.9859 162.7 21.6  1.6 120
2018 10 22 04  01 03 01.488   +24 57 18.96  1.0135 1.9859 162.7 21.6  1.6 120
2018 10 22 05  01 02 59.020   +24 56 29.45  1.0135 1.9859 162.7 21.6  1.7 120
2018 10 22 06  01 02 56.554   +24 55 39.92  1.0136 1.9859 162.7 21.6  1.7 120
2018 10 22 07  01 02 54.090   +24 54 50.37  1.0136 1.9859 162.7 21.6  1.7 120
2018 10 22 08  01 02 51.627   +24 54 00.80  1.0136 1.9859 162.7 21.6  1.7 120
2018 10 22 09  01 02 49.167   +24 53 11.21  1.0136 1.9859 162.7 21.6  1.7 120
2018 10 22 10  01 02 46.709   +24 52 21.60  1.0137 1.9859 162.7 21.6  1.8 119
2018 10 22 11  01 02 44.252   +24 51 31.96  1.0137 1.9859 162.7 21.6  1.8 119
2018 10 22 12  01 02 41.798   +24 50 42.31  1.0137 1.9859 162.7 21.6  1.8 119
2018 10 22 13  01 02 39.346   +24 49 52.63  1.0138 1.9859 162.7 21.6  1.8 119
2018 10 22 14  01 02 36.895   +24 49 02.93  1.0138 1.9859 162.6 21.6  1.9 119
2018 10 22 15  01 02 34.447   +24 48 13.22  1.0138 1.9859 162.6 21.6  1.9 119
2018 10 22 16  01 02 32.000   +24 47 23.48  1.0138 1.9859 162.6 21.6  1.9 119
2018 10 22 17  01 02 29.556   +24 46 33.72  1.0139 1.9859 162.6 21.6  1.9 119
2018 10 22 18  01 02 27.113   +24 45 43.94  1.0139 1.9859 162.6 21.6  1.9 118
2018 10 22 19  01 02 24.673   +24 44 54.14  1.0139 1.9859 162.6 21.6  2.0 118
2018 10 22 20  01 02 22.234   +24 44 04.33  1.0140 1.9859 162.6 21.6  2.0 118